Home > Weather > Hammerfest > Past weeks

Flag for Norway Weather for the Past 2 Weeks in Hammerfest, Norway

Now
41 °F

Partly sunny.


Feels Like: 38 °F
Forecast: 40 / 46 °F
Wind: 5 mph from Southwest

Location: Hammerfest

Current Time: May 5, 2016 at 7:11:18 AM

Latest Report: May 5, 2016 at 5:50 AM


Visibility: N/A

Pressure: 30.12 "Hg

Humidity: 87%

Dew Point: 37 °F

Location of HammerfestLocation

Historic Weather in Hammerfest — Graph

°F

Hammerfest Temperature Yesterday

Maximum temperature yesterday: 54 °F (at 11:50 AM)
Minimum temperature yesterday: 39 °F (at 10:50 PM)
Average temperature yesterday: 46 °F

High & Low Weather Summary for the Past Weeks

 TemperatureHumidityPressure
High54 °F (Apr 29, 3:50 PM)100% (May 4, 10:50 PM)30.36 "Hg (May 4, 10:50 PM)
Low25 °F (Apr 23, 12:50 AM)44% (May 1, 5:50 PM)29.74 "Hg (Apr 23, 1:50 AM)
Average41 °F65%30.04 "Hg
* Reported Apr 20 5:57 AM — May 5 5:50 AM, Hammerfest, Weather by CustomWeather, © 2016

Note: Actual official high and low records may vary slightly from our data, if they occured in-between our weather recording intervals... More about our weather records

Advertising

Hammerfest Weather History for the Previous 24 Hours

Scroll right to see more
 ConditionsComfort  
Time TempWeatherWind HumidityBarometerVisibility
5:50 AM
Thu, May 5
41 °FPartly sunny.5 mph87%30.12 "HgN/A
4:50 AM41 °FSunny.6 mph87%30.12 "Hg10 mi
3:50 AM39 °FScattered clouds.6 mph93%30.12 "HgN/A
2:50 AM39 °FPassing clouds.6 mph93%30.12 "HgN/A
1:50 AM39 °FPassing clouds.3 mph87%30.12 "HgN/A
12:50 AM41 °FPassing clouds.5 mph87%30.12 "HgN/A
11:50 PM
Wed, May 4
39 °FClear.7 mph93%30.12 "Hg10 mi
10:50 PM39 °FScattered clouds.5 mph100%30.12 "HgN/A
9:50 PM41 °FBroken clouds.6 mph93%30.09 "HgN/A
8:50 PM41 °FPartly sunny.6 mph93%30.12 "HgN/A
7:50 PM41 °FLight rain. Partly sunny.6 mph93%30.09 "HgN/A
6:50 PM41 °FLight rain. Broken clouds.13 mph93%30.12 "HgN/A
5:50 PM41 °FDrizzle. Broken clouds.8 mph93%30.09 "HgN/A
4:50 PM43 °FLight rain. Broken clouds.10 mph93%30.09 "Hg6 mi
3:50 PM46 °FSprinkles. Broken clouds.8 mph76%30.07 "HgN/A
2:50 PM50 °FPassing clouds.8 mph58%30.04 "HgN/A
1:50 PM50 °FPassing clouds.5 mph54%30.01 "HgN/A
12:50 PM52 °FSunny.7 mph50%30.01 "Hg10 mi
11:50 AM54 °FPassing clouds.7 mph47%29.98 "HgN/A
10:50 AM52 °FSunny.7 mph50%29.98 "Hg10 mi
9:50 AM50 °FSunny.9 mph54%29.98 "Hg10 mi
8:50 AM50 °FSunny.10 mph50%29.95 "Hg10 mi
7:50 AM50 °FPassing clouds.10 mph50%29.95 "HgN/A
Weather by CustomWeather, © 2016

See weather overviewHow to use our weather pages